Hourly Weather Hoshiarpur

Today, 22 April, Thursday

Time Temperature Precipitation Wind Pressure Humidity
00:00 +19°C° 0.3 mm 2 mps 731 mmHg 77%
01:00 +19°C° 0.3 mm 2 mps 731 mmHg 77%
02:00 +18°C° 0.3 mm 2 mps 731 mmHg 78%
03:00 +18°C° 0.3 mm 2 mps 731 mmHg 78%
04:00 +18°C° 0.3 mm 3 mps 731 mmHg 79%
05:00 +17°C° 0 mm 3 mps 731 mmHg 80%
06:00 +19°C° 0 mm 3 mps 731 mmHg 71%
07:00 +21°C° 0 mm 4 mps 732 mmHg 63%
08:00 +23°C° 0 mm 5 mps 732 mmHg 54%
09:00 +26°C° 0 mm 4 mps 732 mmHg 49%
10:00 +27°C° 0 mm 4 mps 732 mmHg 43%
11:00 +28°C° 0 mm 4 mps 733 mmHg 38%
12:00 +29°C° 0 mm 3 mps 732 mmHg 34%
13:00 +30°C° 0 mm 3 mps 732 mmHg 29%
14:00 +31°C° 0 mm 2 mps 731 mmHg 25%
15:00 +30°C° 0 mm 2 mps 731 mmHg 27%
16:00 +30°C° 0 mm 2 mps 730 mmHg 29%
17:00 +29°C° 0 mm 1 mps 730 mmHg 31%
18:00 +27°C° 0.3 mm 2 mps 730 mmHg 38%
19:00 +25°C° 0.3 mm 3 mps 731 mmHg 45%
20:00 +22°C° 0.3 mm 3 mps 731 mmHg 51%
21:00 +22°C° 0.7 mm 4 mps 731 mmHg 54%
22:00 +21°C° 0.7 mm 5 mps 731 mmHg 57%
23:00 +20°C° 0.7 mm 6 mps 731 mmHg 59%

Tomorrow, 23 April, Friday

Time Temperature Precipitation Wind Pressure Humidity
00:00 +20°C° 0.1 mm 6 mps 731 mmHg 59%
01:00 +20°C° 0.1 mm 6 mps 730 mmHg 58%
02:00 +20°C° 0.1 mm 6 mps 730 mmHg 58%
03:00 +20°C° 0.5 mm 5 mps 730 mmHg 59%
04:00 +20°C° 0.5 mm 4 mps 730 mmHg 60%
05:00 +20°C° 0.5 mm 4 mps 730 mmHg 62%
06:00 +19°C° 0.7 mm 5 mps 731 mmHg 66%
07:00 +18°C° 0.7 mm 7 mps 732 mmHg 69%
08:00 +18°C° 0.7 mm 8 mps 733 mmHg 73%
09:00 +21°C° 0.3 mm 9 mps 733 mmHg 63%
10:00 +22°C° 0.3 mm 9 mps 733 mmHg 54%
11:00 +24°C° 0.3 mm 9 mps 732 mmHg 44%
12:00 +26°C° 0.4 mm 8 mps 732 mmHg 41%
13:00 +28°C° 0.4 mm 7 mps 731 mmHg 39%
14:00 +29°C° 0.4 mm 6 mps 731 mmHg 36%
15:00 +28°C° 0.5 mm 5 mps 730 mmHg 39%
16:00 +28°C° 0.5 mm 5 mps 729 mmHg 42%
17:00 +27°C° 0.5 mm 5 mps 728 mmHg 45%
18:00 +25°C° 0.5 mm 4 mps 729 mmHg 52%
19:00 +22°C° 0.5 mm 3 mps 729 mmHg 59%
20:00 +21°C° 0.5 mm 2 mps 729 mmHg 66%
21:00 +20°C° 0.3 mm 2 mps 730 mmHg 68%
22:00 +19°C° 0.3 mm 2 mps 730 mmHg 70%
23:00 +19°C° 0.3 mm 2 mps 730 mmHg 72%

Day after tomorrow, 24 April, Saturday

Time Temperature Precipitation Wind Pressure Humidity
00:00 +18°C° 0.3 mm 2 mps 729 mmHg 73%
01:00 +18°C° 0.3 mm 2 mps 729 mmHg 74%
02:00 +18°C° 0.3 mm 2 mps 729 mmHg 75%
03:00 +18°C° 0.1 mm 2 mps 729 mmHg 73%
04:00 +18°C° 0.1 mm 2 mps 729 mmHg 71%
05:00 +18°C° 0.1 mm 2 mps 729 mmHg 69%
06:00 +20°C° 0 mm 2 mps 730 mmHg 62%
07:00 +23°C° 0 mm 2 mps 730 mmHg 54%
08:00 +25°C° 0 mm 2 mps 731 mmHg 46%
09:00 +27°C° 0 mm 2 mps 731 mmHg 40%
10:00 +29°C° 0 mm 1 mps 731 mmHg 34%
11:00 +31°C° 0 mm 1 mps 731 mmHg 28%
12:00 +32°C° 0 mm 2 mps 731 mmHg 26%
13:00 +34°C° 0 mm 2 mps 731 mmHg 24%
14:00 +35°C° 0 mm 2 mps 730 mmHg 22%
15:00 +33°C° 0 mm 4 mps 730 mmHg 25%
16:00 +30°C° 0 mm 5 mps 730 mmHg 29%
17:00 +28°C° 0 mm 6 mps 730 mmHg 32%
18:00 +27°C° 0 mm 5 mps 731 mmHg 34%
19:00 +26°C° 0 mm 4 mps 731 mmHg 37%
20:00 +26°C° 0 mm 3 mps 731 mmHg 39%
21:00 +25°C° 0 mm 3 mps 731 mmHg 40%
22:00 +25°C° 0 mm 2 mps 731 mmHg 40%
23:00 +25°C° 0 mm 2 mps 731 mmHg 41%

25 April, Sunday

Time Temperature Precipitation Wind Pressure Humidity
00:00 +24°C° 0 mm 2 mps 731 mmHg 42%
01:00 +24°C° 0 mm 2 mps 731 mmHg 44%
02:00 +24°C° 0 mm 2 mps 730 mmHg 45%
03:00 +23°C° 0 mm 2 mps 730 mmHg 45%
04:00 +23°C° 0 mm 2 mps 730 mmHg 46%
05:00 +21°C° 0 mm 2 mps 730 mmHg 46%
06:00 +25°C° 0 mm 2 mps 731 mmHg 40%
07:00 +27°C° 0 mm 2 mps 731 mmHg 34%
08:00 +29°C° 0 mm 2 mps 731 mmHg 28%
09:00 +31°C° 0 mm 2 mps 731 mmHg 24%
10:00 +34°C° 0 mm 3 mps 732 mmHg 20%
11:00 +37°C° 0 mm 3 mps 732 mmHg 16%
12:00 +37°C° 0 mm 3 mps 731 mmHg 15%
13:00 +38°C° 0 mm 3 mps 731 mmHg 13%
14:00 +39°C° 0 mm 3 mps 730 mmHg 11%
15:00 +39°C° 0 mm 3 mps 730 mmHg 11%
16:00 +38°C° 0 mm 3 mps 729 mmHg 11%
17:00 +38°C° 0 mm 3 mps 729 mmHg 11%
18:00 +36°C° 0 mm 2 mps 729 mmHg 13%
19:00 +32°C° 0 mm 2 mps 729 mmHg 16%
20:00 +30°C° 0 mm 1 mps 730 mmHg 18%
21:00 +29°C° 0 mm 1 mps 730 mmHg 19%
22:00 +29°C° 0 mm 2 mps 730 mmHg 19%
23:00 +28°C° 0 mm 2 mps 730 mmHg 20%

26 April, Monday

Time Temperature Precipitation Wind Pressure Humidity
00:00 +27°C° 0 mm 2 mps 729 mmHg 22%
01:00 +27°C° 0 mm 2 mps 729 mmHg 23%
02:00 +26°C° 0 mm 2 mps 729 mmHg 25%
03:00 +26°C° 0 mm 2 mps 729 mmHg 26%
04:00 +25°C° 0 mm 2 mps 729 mmHg 27%
05:00 +24°C° 0 mm 1 mps 729 mmHg 29%
06:00 +27°C° 0 mm 1 mps 729 mmHg 25%
07:00 +29°C° 0 mm 1 mps 729 mmHg 22%
08:00 +32°C° 0 mm 1 mps 730 mmHg 18%
09:00 +35°C° 0 mm 2 mps 730 mmHg 16%
10:00 +37°C° 0 mm 2 mps 730 mmHg 13%
11:00 +40°C° 0 mm 2 mps 730 mmHg 10%
12:00 +40°C° 0 mm 3 mps 729 mmHg 9%
13:00 +42°C° 0 mm 3 mps 729 mmHg 9%
14:00 +43°C° 0 mm 4 mps 728 mmHg 8%
15:00 +42°C° 0 mm 4 mps 728 mmHg 8%
16:00 +42°C° 0 mm 4 mps 727 mmHg 8%
17:00 +40°C° 0 mm 3 mps 727 mmHg 8%
18:00 +38°C° 0 mm 3 mps 727 mmHg 10%
19:00 +35°C° 0 mm 2 mps 727 mmHg 11%
20:00 +32°C° 0 mm 2 mps 728 mmHg 13%
21:00 +31°C° 0 mm 2 mps 728 mmHg 13%
22:00 +31°C° 0 mm 2 mps 728 mmHg 13%
23:00 +30°C° 0 mm 2 mps 728 mmHg 14%

27 April, Tuesday

Time Temperature Precipitation Wind Pressure Humidity
00:00 +29°C° 0 mm 2 mps 728 mmHg 16%
01:00 +28°C° 0 mm 2 mps 727 mmHg 17%
02:00 +28°C° 0 mm 2 mps 727 mmHg 19%
03:00 +27°C° 0 mm 2 mps 727 mmHg 20%
04:00 +26°C° 0 mm 2 mps 727 mmHg 22%
05:00 +26°C° 0 mm 2 mps 727 mmHg 23%
06:00 +28°C° 0 mm 1 mps 728 mmHg 20%
07:00 +31°C° 0 mm 1 mps 728 mmHg 18%
08:00 +33°C° 0 mm 1 mps 729 mmHg 15%
09:00 +36°C° 0 mm 1 mps 729 mmHg 13%
10:00 +39°C° 0 mm 1 mps 729 mmHg 11%
11:00 +42°C° 0 mm 1 mps 729 mmHg 9%
12:00 +42°C° 0 mm 1 mps 728 mmHg 8%
13:00 +43°C° 0 mm 2 mps 728 mmHg 7%
14:00 +44°C° 0 mm 3 mps 727 mmHg 7%
15:00 +44°C° 0 mm 3 mps 727 mmHg 7%
16:00 +44°C° 0 mm 3 mps 726 mmHg 7%
17:00 +43°C° 0 mm 3 mps 726 mmHg 7%
18:00 +40°C° 0 mm 3 mps 726 mmHg 9%
19:00 +37°C° 0 mm 2 mps 727 mmHg 11%
20:00 +35°C° 0 mm 2 mps 727 mmHg 12%
21:00 +34°C° 0 mm 2 mps 727 mmHg 13%
22:00 +32°C° 0 mm 2 mps 727 mmHg 14%
23:00 +32°C° 0 mm 2 mps 727 mmHg 14%
Show more

We Need Your Consent

Meteoprog and our Service Providers may store and access personal data such as cookies, device identifiers or other similar technologies on your device and process such data to personalise content and ads, as well as provide social media features and to analyse the traffic.

  • Store and/or access information on your device

    Cookies, device identifiers or other information can be stored or accessed on your device for the purposes indicated above.

  • Personalised ads and content, ad and content measurement, audience insights, and products development

    Ads and content can be personalised based on a profile. More data can be added to better personalise ads and content. Ad and content performance can be measured. Insights about the audience who saw the ads and content can be derived. Such data can be used to develop or improve user’s experience, systems and software.

By clicking ‘I Agree’ you will allow the use of indicated cookies, device identifiers, web beacons or other similar technologies. Your settings can be changed in the browser on your device.

For certain purposes, legitimate interests may be relied on, rather than consent. You can read more about this in our Privacy and Cookie Policy.